Weather in Tukay

Russia / Orenburg Oblast     52°45′29″N   54°14′06″E
В апреле 2022 года жителям России запретили посещать сайт meteo.paraplan.net по решению Генеральной прокуратуры. Аудитория сайта уменьшилась в 10 раз. Владельцы сайта не видят смысла в поддержке погодного сервера в таких условиях. Сайт будет закрыт в октябре.
temp.,
°C
wind,
m/s
gust,
m/s
humid.,
%
clouds,
%
prec.,
mm/h
press.,
hPa
HPBL,
m
25 september, sun
sun2523:00+17wnw2457100 0.0 101092
02:00+14nw2463100 0.0 101178
05:00+14n3757100 0.0 1009253
08:00+14n3759100 0.0 1006275
11:00+11nw71091100 7.8 1006447
14:00+11wnw61091100 6.9 1004600
17:00+11wsw4788100 8.0 1004618
20:00+9wsw5988100 0.5 1007562
26 september, mon
mon2623:00+9wsw4986100 0.6 1007344
02:00+8sw249591 0.0 1008133
05:00+9s2592100 0.6 1008219
08:00+9sw5890100 0.6 1009474
11:00+10wsw6779100 1.4 1010665
14:00+11wsw6768100 0.5 10111197
17:00+10wsw4673100 1.1 10121106
20:00+9wsw5884100 0.4 1013627
27 september, tue
tue2723:00+8wsw588487 0.8 1014606
02:00+8wsw488499 0.2 1014469
05:00+7wsw379397 0.4 1015255
08:00+7w4790100 0.1 1015355
11:00+9w4577100 0.2 1017588
14:00+11wnw5565100 0.0 1017926
17:00+12w456014 0.0 10181008
20:00+9w227656 0.0 101915
28 september, wed
wed2823:00+8w118099 0.0 101910
02:00+7ssw0183100 0.0 101910
05:00+6s1185100 0.0 101910
08:00+8s1178100 0.1 101948
11:00+8e2384100 0.9 1020147
14:00+8ese4682100 0.3 1020330
17:00+8ese5685100 0.4 1019314
20:00+8e5889100 0.2 1020279
29 september, thu
thu2923:00+8ese6993100 2.1 1019354
02:00+8ese6993100 2.3 1019329
05:00+7ese71293100 3.1 1019377
08:00+6ese91492100 1.4 1019405
11:00+5ese101490100 1.7 1019440
14:00+5ese101385100 0.1 1020480
17:00+4e101386100 0.1 1021475
20:00+3ese101685100 0.1 1023511